Year,Month,Day,Hour,Minute,Value (Times are PST for temperature in C)
2006,09,11,00,00,12.80
2006,09,11,00,01,12.80
2006,09,11,00,02,12.80
2006,09,11,00,03,12.80
2006,09,11,00,04,12.80
2006,09,11,00,05,12.80
2006,09,11,00,06,12.80
2006,09,11,00,07,12.80
2006,09,11,00,08,12.80
2006,09,11,00,09,12.80
2006,09,11,00,10,12.80
2006,09,11,00,11,12.80
2006,09,11,00,12,12.70
2006,09,11,00,13,12.70
2006,09,11,00,14,12.70
2006,09,11,00,15,12.70
2006,09,11,00,16,12.70
2006,09,11,00,17,12.70
2006,09,11,00,18,12.80
2006,09,11,00,19,12.80
2006,09,11,00,20,12.80
2006,09,11,00,21,12.80
2006,09,11,00,22,12.80
2006,09,11,00,23,12.90
2006,09,11,00,24,12.90
2006,09,11,00,25,12.90
2006,09,11,00,26,12.90
2006,09,11,00,27,12.90
2006,09,11,00,28,12.90
2006,09,11,00,29,12.90
2006,09,11,00,30,12.90
2006,09,11,00,31,12.90
2006,09,11,00,32,12.90
2006,09,11,00,33,12.90
2006,09,11,00,34,12.90
2006,09,11,00,35,12.90
2006,09,11,00,36,13.00
2006,09,11,00,37,13.00
2006,09,11,00,38,13.00
2006,09,11,00,39,13.00
2006,09,11,00,40,13.00
2006,09,11,00,41,13.00
2006,09,11,00,42,12.90
2006,09,11,00,43,12.90
2006,09,11,00,44,12.90
2006,09,11,00,45,12.90
2006,09,11,00,46,12.80
2006,09,11,00,47,12.80
2006,09,11,00,48,12.80
2006,09,11,00,49,12.80
2006,09,11,00,50,12.80
2006,09,11,00,51,12.70
2006,09,11,00,52,12.70
2006,09,11,00,53,12.70
2006,09,11,00,54,12.70
2006,09,11,00,55,12.70
2006,09,11,00,56,12.70
2006,09,11,00,57,12.70
2006,09,11,00,58,12.70
2006,09,11,00,59,12.70
2006,09,11,01,00,12.70
2006,09,11,01,01,12.70
2006,09,11,01,02,12.70
2006,09,11,01,03,12.70
2006,09,11,01,04,12.70
2006,09,11,01,05,12.70
2006,09,11,01,06,12.70
2006,09,11,01,07,12.70
2006,09,11,01,08,12.60
2006,09,11,01,09,12.60
2006,09,11,01,10,12.60
2006,09,11,01,11,12.60
2006,09,11,01,12,12.50
2006,09,11,01,13,12.50
2006,09,11,01,14,12.50
2006,09,11,01,15,12.40
2006,09,11,01,16,12.40
2006,09,11,01,17,12.40
2006,09,11,01,18,12.30
2006,09,11,01,19,12.30
2006,09,11,01,20,12.30
2006,09,11,01,21,12.30
2006,09,11,01,22,12.30
2006,09,11,01,23,12.30
2006,09,11,01,24,12.30
2006,09,11,01,25,12.30
2006,09,11,01,26,12.30
2006,09,11,01,27,12.40
2006,09,11,01,28,12.40
2006,09,11,01,29,12.40
2006,09,11,01,30,12.40
2006,09,11,01,31,12.40
2006,09,11,01,32,12.40
2006,09,11,01,33,12.40
2006,09,11,01,34,12.40
2006,09,11,01,35,12.40
2006,09,11,01,36,12.40
2006,09,11,01,37,12.40
2006,09,11,01,38,12.40
2006,09,11,01,39,12.40
2006,09,11,01,40,12.40
2006,09,11,01,41,12.30
2006,09,11,01,42,12.30
2006,09,11,01,43,12.30
2006,09,11,01,44,12.30
2006,09,11,01,45,12.30
2006,09,11,01,46,12.30
2006,09,11,01,47,12.30
2006,09,11,01,48,12.30
2006,09,11,01,49,12.20
2006,09,11,01,50,12.20
2006,09,11,01,51,12.20
2006,09,11,01,52,12.20
2006,09,11,01,53,12.20
2006,09,11,01,54,12.20
2006,09,11,01,55,12.10
2006,09,11,01,56,12.10
2006,09,11,01,57,12.10
2006,09,11,01,58,12.10
2006,09,11,01,59,12.10
2006,09,11,02,00,12.10
2006,09,11,02,01,12.00
2006,09,11,02,02,12.00
2006,09,11,02,03,12.00
2006,09,11,02,04,12.00
2006,09,11,02,05,12.00
2006,09,11,02,06,12.10
2006,09,11,02,07,12.10
2006,09,11,02,08,12.10
2006,09,11,02,09,12.10
2006,09,11,02,10,12.10
2006,09,11,02,11,12.10
2006,09,11,02,12,12.10
2006,09,11,02,13,12.00
2006,09,11,02,14,12.00
2006,09,11,02,15,12.00
2006,09,11,02,16,12.00
2006,09,11,02,17,12.00
2006,09,11,02,18,12.00
2006,09,11,02,19,12.00
2006,09,11,02,20,12.00
2006,09,11,02,21,12.00
2006,09,11,02,22,11.90
2006,09,11,02,23,11.90
2006,09,11,02,24,11.90
2006,09,11,02,25,11.90
2006,09,11,02,26,11.90
2006,09,11,02,27,11.90
2006,09,11,02,28,11.90
2006,09,11,02,29,11.90
2006,09,11,02,30,11.90
2006,09,11,02,31,11.90
2006,09,11,02,32,11.90
2006,09,11,02,33,11.80
2006,09,11,02,34,11.80
2006,09,11,02,35,11.80
2006,09,11,02,36,11.80
2006,09,11,02,37,11.80
2006,09,11,02,38,11.80
2006,09,11,02,39,11.80
2006,09,11,02,40,11.70
2006,09,11,02,41,11.70
2006,09,11,02,42,11.70
2006,09,11,02,43,11.70
2006,09,11,02,44,11.70
2006,09,11,02,45,11.80
2006,09,11,02,46,11.80
2006,09,11,02,47,11.80
2006,09,11,02,48,11.80
2006,09,11,02,49,11.80
2006,09,11,02,50,11.80
2006,09,11,02,51,11.90
2006,09,11,02,52,11.90
2006,09,11,02,53,11.80
2006,09,11,02,54,11.80
2006,09,11,02,55,11.80
2006,09,11,02,56,11.80
2006,09,11,02,57,11.80
2006,09,11,02,58,11.80
2006,09,11,02,59,11.80
2006,09,11,03,00,11.80
2006,09,11,03,01,11.80
2006,09,11,03,02,11.80
2006,09,11,03,03,11.70
2006,09,11,03,04,11.70
2006,09,11,03,05,11.70
2006,09,11,03,06,11.70
2006,09,11,03,07,11.70
2006,09,11,03,08,11.70
2006,09,11,03,09,11.70
2006,09,11,03,10,11.70
2006,09,11,03,11,11.60
2006,09,11,03,12,11.60
2006,09,11,03,13,11.60
2006,09,11,03,14,11.60
2006,09,11,03,15,11.50
2006,09,11,03,16,11.50
2006,09,11,03,17,11.50
2006,09,11,03,18,11.50
2006,09,11,03,19,11.40
2006,09,11,03,20,11.40
2006,09,11,03,21,11.40
2006,09,11,03,22,11.40
2006,09,11,03,23,11.40
2006,09,11,03,24,11.40
2006,09,11,03,25,11.30
2006,09,11,03,26,11.30
2006,09,11,03,27,11.30
2006,09,11,03,28,11.30
2006,09,11,03,29,11.30
2006,09,11,03,30,11.30
2006,09,11,03,31,11.30
2006,09,11,03,32,11.20
2006,09,11,03,33,11.20
2006,09,11,03,34,11.20
2006,09,11,03,35,11.20
2006,09,11,03,36,11.20
2006,09,11,03,37,11.20
2006,09,11,03,38,11.20
2006,09,11,03,39,11.20
2006,09,11,03,40,11.20
2006,09,11,03,41,11.10
2006,09,11,03,42,11.10
2006,09,11,03,43,11.10
2006,09,11,03,44,11.10
2006,09,11,03,45,11.10
2006,09,11,03,46,11.10
2006,09,11,03,47,11.10
2006,09,11,03,48,11.10
2006,09,11,03,49,11.00
2006,09,11,03,50,11.00
2006,09,11,03,51,11.00
2006,09,11,03,52,11.00
2006,09,11,03,53,11.00
2006,09,11,03,54,11.00
2006,09,11,03,55,11.00
2006,09,11,03,56,11.00
2006,09,11,03,57,11.00
2006,09,11,03,58,11.00
2006,09,11,03,59,11.00
2006,09,11,04,00,11.00
2006,09,11,04,01,11.00
2006,09,11,04,02,11.00
2006,09,11,04,03,10.90
2006,09,11,04,04,11.00
2006,09,11,04,05,11.00
2006,09,11,04,06,11.00
2006,09,11,04,07,10.90
2006,09,11,04,08,11.00
2006,09,11,04,09,10.90
2006,09,11,04,10,11.00
2006,09,11,04,11,11.00
2006,09,11,04,12,11.00
2006,09,11,04,13,11.00
2006,09,11,04,14,11.00
2006,09,11,04,15,11.00
2006,09,11,04,16,11.00
2006,09,11,04,17,11.00
2006,09,11,04,18,11.00
2006,09,11,04,19,11.00
2006,09,11,04,20,11.00
2006,09,11,04,21,11.00
2006,09,11,04,22,11.00
2006,09,11,04,23,11.10
2006,09,11,04,24,11.00
2006,09,11,04,25,11.00
2006,09,11,04,26,11.00
2006,09,11,04,27,11.00
2006,09,11,04,28,11.00
2006,09,11,04,29,10.90
2006,09,11,04,30,10.90
2006,09,11,04,31,10.90
2006,09,11,04,32,10.90
2006,09,11,04,33,10.80
2006,09,11,04,34,10.80
2006,09,11,04,35,10.80
2006,09,11,04,36,10.80
2006,09,11,04,37,10.80
2006,09,11,04,38,10.70
2006,09,11,04,39,10.70
2006,09,11,04,40,10.70
2006,09,11,04,41,10.60
2006,09,11,04,42,10.60
2006,09,11,04,43,10.60
2006,09,11,04,44,10.60
2006,09,11,04,45,10.60
2006,09,11,04,46,10.60
2006,09,11,04,47,10.60
2006,09,11,04,48,10.60
2006,09,11,04,49,10.50
2006,09,11,04,50,10.50
2006,09,11,04,51,10.50
2006,09,11,04,52,10.50
2006,09,11,04,53,10.50
2006,09,11,04,54,10.50
2006,09,11,04,55,10.50
2006,09,11,04,56,10.60
2006,09,11,04,57,10.60
2006,09,11,04,58,10.50
2006,09,11,04,59,10.60
2006,09,11,05,00,10.60
2006,09,11,05,01,10.60
2006,09,11,05,02,10.60
2006,09,11,05,03,10.60
2006,09,11,05,04,10.60
2006,09,11,05,05,10.70
2006,09,11,05,06,10.70
2006,09,11,05,07,10.60
2006,09,11,05,08,10.60
2006,09,11,05,09,10.70
2006,09,11,05,10,10.70
2006,09,11,05,11,10.70
2006,09,11,05,12,10.80
2006,09,11,05,13,10.80
2006,09,11,05,14,10.80
2006,09,11,05,15,10.80
2006,09,11,05,16,10.80
2006,09,11,05,17,10.80
2006,09,11,05,18,10.80
2006,09,11,05,19,10.80
2006,09,11,05,20,10.80
2006,09,11,05,21,10.80
2006,09,11,05,22,10.80
2006,09,11,05,23,10.80
2006,09,11,05,24,10.80
2006,09,11,05,25,10.80
2006,09,11,05,26,10.80
2006,09,11,05,27,10.90
2006,09,11,05,28,10.90
2006,09,11,05,29,10.90
2006,09,11,05,30,10.90
2006,09,11,05,31,10.90
2006,09,11,05,32,10.90
2006,09,11,05,33,10.90
2006,09,11,05,34,10.90
2006,09,11,05,35,10.80
2006,09,11,05,36,10.80
2006,09,11,05,37,10.80
2006,09,11,05,38,10.80
2006,09,11,05,39,10.70
2006,09,11,05,40,10.70
2006,09,11,05,41,10.70
2006,09,11,05,42,10.60
2006,09,11,05,43,10.60
2006,09,11,05,44,10.60
2006,09,11,05,45,10.60
2006,09,11,05,46,10.50
2006,09,11,05,47,10.50
2006,09,11,05,48,10.50
2006,09,11,05,49,10.40
2006,09,11,05,50,10.40
2006,09,11,05,51,10.30
2006,09,11,05,52,10.30
2006,09,11,05,53,10.30
2006,09,11,05,54,10.30
2006,09,11,05,55,10.30
2006,09,11,05,56,10.30
2006,09,11,05,57,10.30
2006,09,11,05,58,10.30
2006,09,11,05,59,10.40
2006,09,11,06,00,10.40
2006,09,11,06,01,10.50
2006,09,11,06,02,10.50
2006,09,11,06,03,10.50
2006,09,11,06,04,10.40
2006,09,11,06,05,10.40
2006,09,11,06,06,10.40
2006,09,11,06,07,10.40
2006,09,11,06,08,10.40
2006,09,11,06,09,10.30
2006,09,11,06,10,10.30
2006,09,11,06,11,10.30
2006,09,11,06,12,10.30
2006,09,11,06,13,10.30
2006,09,11,06,14,10.30
2006,09,11,06,15,10.30
2006,09,11,06,16,10.30
2006,09,11,06,17,10.20
2006,09,11,06,18,10.20
2006,09,11,06,19,10.20
2006,09,11,06,20,10.20
2006,09,11,06,21,10.20
2006,09,11,06,22,10.20
2006,09,11,06,23,10.20
2006,09,11,06,24,10.20
2006,09,11,06,25,10.20
2006,09,11,06,26,10.20
2006,09,11,06,27,10.20
2006,09,11,06,28,10.20
2006,09,11,06,29,10.20
2006,09,11,06,30,10.20
2006,09,11,06,31,10.20
2006,09,11,06,32,10.20
2006,09,11,06,33,10.20
2006,09,11,06,34,10.20
2006,09,11,06,35,10.20
2006,09,11,06,36,10.20
2006,09,11,06,37,10.20
2006,09,11,06,38,10.20
2006,09,11,06,39,10.20
2006,09,11,06,40,10.20
2006,09,11,06,41,10.20
2006,09,11,06,42,10.30
2006,09,11,06,43,10.20
2006,09,11,06,44,10.20
2006,09,11,06,45,10.20
2006,09,11,06,46,10.20
2006,09,11,06,47,10.20
2006,09,11,06,48,10.20
2006,09,11,06,49,10.20
2006,09,11,06,50,10.30
2006,09,11,06,51,10.30
2006,09,11,06,52,10.30
2006,09,11,06,53,10.30
2006,09,11,06,54,10.30
2006,09,11,06,55,10.30
2006,09,11,06,56,10.30
2006,09,11,06,57,10.30
2006,09,11,06,58,10.30
2006,09,11,06,59,10.30
2006,09,11,07,00,10.30
2006,09,11,07,01,10.30
2006,09,11,07,02,10.30
2006,09,11,07,03,10.30
2006,09,11,07,04,10.40
2006,09,11,07,05,10.40
2006,09,11,07,06,10.40
2006,09,11,07,07,10.40
2006,09,11,07,08,10.40
2006,09,11,07,09,10.40
2006,09,11,07,10,10.40
2006,09,11,07,11,10.50
2006,09,11,07,12,10.50
2006,09,11,07,13,10.50
2006,09,11,07,14,10.50
2006,09,11,07,15,10.60
2006,09,11,07,16,10.60
2006,09,11,07,17,10.60
2006,09,11,07,18,10.70
2006,09,11,07,19,10.80
2006,09,11,07,20,10.80
2006,09,11,07,21,10.90
2006,09,11,07,22,11.00
2006,09,11,07,23,11.10
2006,09,11,07,24,11.10
2006,09,11,07,25,11.20
2006,09,11,07,26,11.20
2006,09,11,07,27,11.30
2006,09,11,07,28,11.30
2006,09,11,07,29,11.30
2006,09,11,07,30,11.30
2006,09,11,07,31,11.30
2006,09,11,07,32,11.30
2006,09,11,07,33,11.40
2006,09,11,07,34,11.40
2006,09,11,07,35,11.40
2006,09,11,07,36,11.40
2006,09,11,07,37,11.40
2006,09,11,07,38,11.50
2006,09,11,07,39,11.50
2006,09,11,07,40,11.50
2006,09,11,07,41,11.60
2006,09,11,07,42,11.60
2006,09,11,07,43,11.60
2006,09,11,07,44,11.70
2006,09,11,07,45,11.70
2006,09,11,07,46,11.70
2006,09,11,07,47,11.80
2006,09,11,07,48,11.80
2006,09,11,07,49,11.80
2006,09,11,07,50,11.90
2006,09,11,07,51,11.90
2006,09,11,07,52,11.90
2006,09,11,07,53,12.00
2006,09,11,07,54,12.00
2006,09,11,07,55,12.10
2006,09,11,07,56,12.10
2006,09,11,07,57,12.20
2006,09,11,07,58,12.30
2006,09,11,07,59,12.30
2006,09,11,08,00,12.40
2006,09,11,08,01,12.40
2006,09,11,08,02,12.50
2006,09,11,08,03,12.50
2006,09,11,08,04,12.60
2006,09,11,08,05,12.70
2006,09,11,08,06,12.80
2006,09,11,08,07,12.90
2006,09,11,08,08,12.90
2006,09,11,08,09,13.00
2006,09,11,08,10,13.10
2006,09,11,08,11,13.20
2006,09,11,08,12,13.20
2006,09,11,08,13,13.30
2006,09,11,08,14,13.30
2006,09,11,08,15,13.40
2006,09,11,08,16,13.40
2006,09,11,08,17,13.50
2006,09,11,08,18,13.60
2006,09,11,08,19,13.60
2006,09,11,08,20,13.70
2006,09,11,08,21,13.70
2006,09,11,08,22,13.70
2006,09,11,08,23,13.80
2006,09,11,08,24,13.80
2006,09,11,08,25,13.90
2006,09,11,08,26,13.90
2006,09,11,08,27,14.00
2006,09,11,08,28,14.00
2006,09,11,08,29,14.10
2006,09,11,08,30,14.10
2006,09,11,08,31,14.20
2006,09,11,08,32,14.20
2006,09,11,08,33,14.30
2006,09,11,08,34,14.30
2006,09,11,08,35,14.40
2006,09,11,08,36,14.50
2006,09,11,08,37,14.50
2006,09,11,08,38,14.70
2006,09,11,08,39,14.80
2006,09,11,08,40,14.90
2006,09,11,08,41,15.00
2006,09,11,08,42,15.00
2006,09,11,08,43,15.00
2006,09,11,08,44,15.00
2006,09,11,08,45,15.00
2006,09,11,08,46,15.00
2006,09,11,08,47,15.10
2006,09,11,08,48,15.20
2006,09,11,08,49,15.30
2006,09,11,08,50,15.50
2006,09,11,08,51,15.60
2006,09,11,08,52,15.60
2006,09,11,08,53,15.70
2006,09,11,08,54,15.70
2006,09,11,08,55,15.80
2006,09,11,08,56,15.90
2006,09,11,08,57,15.90
2006,09,11,08,58,16.00
2006,09,11,08,59,16.10
2006,09,11,09,00,16.20
2006,09,11,09,01,16.20
2006,09,11,09,02,16.30
2006,09,11,09,03,16.30
2006,09,11,09,04,16.40
2006,09,11,09,05,16.50
2006,09,11,09,06,16.60
2006,09,11,09,07,16.70
2006,09,11,09,08,16.70
2006,09,11,09,09,16.80
2006,09,11,09,10,16.80
2006,09,11,09,11,16.80
2006,09,11,09,12,16.80
2006,09,11,09,13,16.80
2006,09,11,09,14,16.80
2006,09,11,09,15,16.80
2006,09,11,09,16,16.80
2006,09,11,09,17,16.80
2006,09,11,09,18,16.80
2006,09,11,09,19,16.80
2006,09,11,09,20,16.80
2006,09,11,09,21,16.80
2006,09,11,09,22,16.80
2006,09,11,09,23,16.80
2006,09,11,09,24,16.90
2006,09,11,09,25,16.90
2006,09,11,09,26,17.00
2006,09,11,09,27,17.10
2006,09,11,09,28,17.20
2006,09,11,09,29,17.30
2006,09,11,09,30,17.30
2006,09,11,09,31,17.40
2006,09,11,09,32,17.40
2006,09,11,09,33,17.40
2006,09,11,09,34,17.40
2006,09,11,09,35,17.40
2006,09,11,09,36,17.30
2006,09,11,09,37,17.30
2006,09,11,09,38,17.20
2006,09,11,09,39,17.30
2006,09,11,09,40,17.30
2006,09,11,09,41,17.30
2006,09,11,09,42,17.40
2006,09,11,09,43,17.40
2006,09,11,09,44,17.40
2006,09,11,09,45,17.40
2006,09,11,09,46,17.50
2006,09,11,09,47,17.40
2006,09,11,09,48,17.40
2006,09,11,09,49,17.50
2006,09,11,09,50,17.50
2006,09,11,09,51,17.50
2006,09,11,09,52,17.60
2006,09,11,09,53,17.60
2006,09,11,09,54,17.70
2006,09,11,09,55,17.70
2006,09,11,09,56,17.80
2006,09,11,09,57,17.80
2006,09,11,09,58,17.80
2006,09,11,09,59,17.80
2006,09,11,10,00,17.90
2006,09,11,10,01,17.90
2006,09,11,10,02,17.90
2006,09,11,10,03,18.00
2006,09,11,10,04,18.00
2006,09,11,10,05,18.00
2006,09,11,10,06,18.00
2006,09,11,10,07,18.10
2006,09,11,10,08,18.10
2006,09,11,10,09,18.10
2006,09,11,10,10,18.20
2006,09,11,10,11,18.20
2006,09,11,10,12,18.30
2006,09,11,10,13,18.40
2006,09,11,10,14,18.50
2006,09,11,10,15,18.50
2006,09,11,10,16,18.40
2006,09,11,10,17,18.30
2006,09,11,10,18,18.30
2006,09,11,10,19,18.30
2006,09,11,10,20,18.30
2006,09,11,10,21,18.20
2006,09,11,10,22,18.20
2006,09,11,10,23,18.10
2006,09,11,10,24,18.10
2006,09,11,10,25,18.00
2006,09,11,10,26,18.00
2006,09,11,10,27,18.00
2006,09,11,10,28,18.00
2006,09,11,10,29,18.00
2006,09,11,10,30,18.10
2006,09,11,10,31,18.20
2006,09,11,10,32,18.30
2006,09,11,10,33,18.40
2006,09,11,10,34,18.60
2006,09,11,10,35,18.70
2006,09,11,10,36,18.70
2006,09,11,10,37,18.80
2006,09,11,10,38,18.80
2006,09,11,10,39,18.80
2006,09,11,10,40,18.80
2006,09,11,10,41,18.80
2006,09,11,10,42,18.80
2006,09,11,10,43,18.80
2006,09,11,10,44,18.90
2006,09,11,10,45,18.90
2006,09,11,10,46,19.00
2006,09,11,10,47,19.10
2006,09,11,10,48,19.10
2006,09,11,10,49,19.20
2006,09,11,10,50,19.20
2006,09,11,10,51,19.20
2006,09,11,10,52,19.20
2006,09,11,10,53,19.20
2006,09,11,10,54,19.20
2006,09,11,10,55,19.30
2006,09,11,10,56,19.30
2006,09,11,10,57,19.20
2006,09,11,10,58,19.10
2006,09,11,10,59,19.00
2006,09,11,11,00,19.00
2006,09,11,11,01,18.90
2006,09,11,11,02,18.80
2006,09,11,11,03,18.70
2006,09,11,11,04,18.50
2006,09,11,11,05,18.30
2006,09,11,11,06,18.20
2006,09,11,11,07,18.10
2006,09,11,11,08,18.00
2006,09,11,11,09,17.90
2006,09,11,11,10,17.90
2006,09,11,11,11,17.90
2006,09,11,11,12,17.80
2006,09,11,11,13,17.80
2006,09,11,11,14,17.70
2006,09,11,11,15,17.60
2006,09,11,11,16,17.50
2006,09,11,11,17,17.50
2006,09,11,11,18,17.60
2006,09,11,11,19,17.60
2006,09,11,11,20,17.60
2006,09,11,11,21,17.60
2006,09,11,11,22,17.60
2006,09,11,11,23,17.60
2006,09,11,11,24,17.60
2006,09,11,11,25,17.70
2006,09,11,11,26,17.70
2006,09,11,11,27,17.80
2006,09,11,11,28,17.90
2006,09,11,11,29,18.00
2006,09,11,11,30,18.00
2006,09,11,11,31,18.10
2006,09,11,11,32,18.20
2006,09,11,11,33,18.10
2006,09,11,11,34,18.00
2006,09,11,11,35,18.00
2006,09,11,11,36,18.00
2006,09,11,11,37,18.00
2006,09,11,11,38,18.10
2006,09,11,11,39,18.10
2006,09,11,11,40,18.00
2006,09,11,11,41,18.00
2006,09,11,11,42,17.90
2006,09,11,11,43,17.90
2006,09,11,11,44,17.90
2006,09,11,11,45,17.90
2006,09,11,11,46,17.80
2006,09,11,11,47,17.80
2006,09,11,11,48,17.80
2006,09,11,11,49,17.80
2006,09,11,11,50,17.80
2006,09,11,11,51,17.80
2006,09,11,11,52,17.80
2006,09,11,11,53,17.80
2006,09,11,11,54,17.80
2006,09,11,11,55,17.90
2006,09,11,11,56,17.90
2006,09,11,11,57,17.90
2006,09,11,11,58,17.90
2006,09,11,11,59,17.90
2006,09,11,12,00,17.90
2006,09,11,12,01,17.80
2006,09,11,12,02,17.90
2006,09,11,12,03,18.00
2006,09,11,12,04,18.00
2006,09,11,12,05,18.10
2006,09,11,12,06,18.10
2006,09,11,12,07,18.10
2006,09,11,12,08,18.10
2006,09,11,12,09,18.10
2006,09,11,12,10,18.00
2006,09,11,12,11,18.00
2006,09,11,12,12,18.00
2006,09,11,12,13,18.00
2006,09,11,12,14,17.90
2006,09,11,12,15,17.90
2006,09,11,12,16,17.80
2006,09,11,12,17,17.70
2006,09,11,12,18,17.60
2006,09,11,12,19,17.60
2006,09,11,12,20,17.50
2006,09,11,12,21,17.40
2006,09,11,12,22,17.50
2006,09,11,12,23,17.60
2006,09,11,12,24,17.70
2006,09,11,12,25,17.80
2006,09,11,12,26,17.90
2006,09,11,12,27,18.10
2006,09,11,12,28,18.00
2006,09,11,12,29,17.90
2006,09,11,12,30,17.80
2006,09,11,12,31,17.70
2006,09,11,12,32,17.60
2006,09,11,12,33,17.60
2006,09,11,12,34,17.60
2006,09,11,12,35,17.70
2006,09,11,12,36,17.70
2006,09,11,12,37,17.80
2006,09,11,12,38,17.80
2006,09,11,12,39,17.70
2006,09,11,12,40,17.70
2006,09,11,12,41,17.70
2006,09,11,12,42,17.70
2006,09,11,12,43,17.70
2006,09,11,12,44,17.60
2006,09,11,12,45,17.60
2006,09,11,12,46,17.60
2006,09,11,12,47,17.60
2006,09,11,12,48,17.70
2006,09,11,12,49,17.80
2006,09,11,12,50,17.90
2006,09,11,12,51,17.90
2006,09,11,12,52,17.90
2006,09,11,12,53,17.80
2006,09,11,12,54,17.80
2006,09,11,12,55,17.80
2006,09,11,12,56,17.70
2006,09,11,12,57,17.80
2006,09,11,12,58,17.80
2006,09,11,12,59,17.80
2006,09,11,13,00,17.80
2006,09,11,13,01,17.80
2006,09,11,13,02,17.70
2006,09,11,13,03,17.80
2006,09,11,13,04,17.80
2006,09,11,13,05,17.80
2006,09,11,13,06,17.90
2006,09,11,13,07,17.90
2006,09,11,13,08,18.00
2006,09,11,13,09,18.10
2006,09,11,13,10,18.10
2006,09,11,13,11,18.20
2006,09,11,13,12,18.20
2006,09,11,13,13,18.20
2006,09,11,13,14,18.30
2006,09,11,13,15,18.30
2006,09,11,13,16,18.30
2006,09,11,13,17,18.30
2006,09,11,13,18,18.30
2006,09,11,13,19,18.30
2006,09,11,13,20,18.30
2006,09,11,13,21,18.20
2006,09,11,13,22,18.00
2006,09,11,13,23,17.90
2006,09,11,13,24,17.90
2006,09,11,13,25,17.90
2006,09,11,13,26,18.00
2006,09,11,13,27,18.00
2006,09,11,13,28,18.00
2006,09,11,13,29,18.10
2006,09,11,13,30,18.10
2006,09,11,13,31,18.20
2006,09,11,13,32,18.20
2006,09,11,13,33,18.20
2006,09,11,13,34,18.30
2006,09,11,13,35,18.50
2006,09,11,13,36,18.60
2006,09,11,13,37,18.60
2006,09,11,13,38,18.50
2006,09,11,13,39,18.50
2006,09,11,13,40,18.50
2006,09,11,13,41,18.40
2006,09,11,13,42,18.40
2006,09,11,13,43,18.50
2006,09,11,13,44,18.50
2006,09,11,13,45,18.60
2006,09,11,13,46,18.70
2006,09,11,13,47,18.70
2006,09,11,13,48,18.80
2006,09,11,13,49,18.70
2006,09,11,13,50,18.70
2006,09,11,13,51,18.70
2006,09,11,13,52,18.70
2006,09,11,13,53,18.80
2006,09,11,13,54,18.80
2006,09,11,13,55,18.80
2006,09,11,13,56,18.80
2006,09,11,13,57,18.80
2006,09,11,13,58,18.80
2006,09,11,13,59,18.90
2006,09,11,14,00,18.90
2006,09,11,14,01,18.90
2006,09,11,14,02,18.80
2006,09,11,14,03,18.70
2006,09,11,14,04,18.70
2006,09,11,14,05,18.80
2006,09,11,14,06,18.70
2006,09,11,14,07,18.60
2006,09,11,14,08,18.60
2006,09,11,14,09,18.60
2006,09,11,14,10,18.60
2006,09,11,14,11,18.60
2006,09,11,14,12,18.70
2006,09,11,14,13,18.80
2006,09,11,14,14,18.90
2006,09,11,14,15,18.90
2006,09,11,14,16,19.00
2006,09,11,14,17,19.10
2006,09,11,14,18,19.10
2006,09,11,14,19,19.20
2006,09,11,14,20,19.30
2006,09,11,14,21,19.40
2006,09,11,14,22,19.40
2006,09,11,14,23,19.40
2006,09,11,14,24,19.40
2006,09,11,14,25,19.50
2006,09,11,14,26,19.50
2006,09,11,14,27,19.50
2006,09,11,14,28,19.60
2006,09,11,14,29,19.80
2006,09,11,14,30,19.90
2006,09,11,14,31,20.00
2006,09,11,14,32,20.10
2006,09,11,14,33,20.10
2006,09,11,14,34,20.10
2006,09,11,14,35,20.00
2006,09,11,14,36,20.00
2006,09,11,14,37,19.80
2006,09,11,14,38,19.70
2006,09,11,14,39,19.70
2006,09,11,14,40,19.60
2006,09,11,14,41,19.60
2006,09,11,14,42,19.60
2006,09,11,14,43,19.60
2006,09,11,14,44,19.60
2006,09,11,14,45,19.70
2006,09,11,14,46,19.80
2006,09,11,14,47,20.00
2006,09,11,14,48,20.10
2006,09,11,14,49,20.20
2006,09,11,14,50,20.20
2006,09,11,14,51,20.20
2006,09,11,14,52,20.10
2006,09,11,14,53,20.10
2006,09,11,14,54,20.10
2006,09,11,14,55,20.00
2006,09,11,14,56,20.00
2006,09,11,14,57,19.80
2006,09,11,14,58,19.70
2006,09,11,14,59,19.70
2006,09,11,15,00,19.60
2006,09,11,15,01,19.50
2006,09,11,15,02,19.60
2006,09,11,15,03,19.60
2006,09,11,15,04,19.60
2006,09,11,15,05,19.70
2006,09,11,15,06,19.80
2006,09,11,15,07,19.90
2006,09,11,15,08,20.00
2006,09,11,15,09,20.00
2006,09,11,15,10,20.10
2006,09,11,15,11,20.10
2006,09,11,15,12,20.10
2006,09,11,15,13,20.10
2006,09,11,15,14,20.00
2006,09,11,15,15,20.00
2006,09,11,15,16,19.90
2006,09,11,15,17,19.80
2006,09,11,15,18,19.80
2006,09,11,15,19,19.70
2006,09,11,15,20,19.50
2006,09,11,15,21,19.40
2006,09,11,15,22,19.30
2006,09,11,15,23,19.20
2006,09,11,15,24,19.20
2006,09,11,15,25,19.20
2006,09,11,15,26,19.20
2006,09,11,15,27,19.20
2006,09,11,15,28,19.20
2006,09,11,15,29,19.30
2006,09,11,15,30,19.30
2006,09,11,15,31,19.40
2006,09,11,15,32,19.50
2006,09,11,15,33,19.60
2006,09,11,15,34,19.60
2006,09,11,15,35,19.70
2006,09,11,15,36,19.80
2006,09,11,15,37,19.80
2006,09,11,15,38,19.90
2006,09,11,15,39,20.00
2006,09,11,15,40,20.10
2006,09,11,15,41,20.10
2006,09,11,15,42,20.10
2006,09,11,15,43,20.10
2006,09,11,15,44,20.10
2006,09,11,15,45,20.00
2006,09,11,15,46,19.90
2006,09,11,15,47,19.80
2006,09,11,15,48,19.80
2006,09,11,15,49,19.80
2006,09,11,15,50,19.80
2006,09,11,15,51,19.80
2006,09,11,15,52,19.80
2006,09,11,15,53,19.80
2006,09,11,15,54,19.80
2006,09,11,15,55,19.80
2006,09,11,15,56,19.90
2006,09,11,15,57,19.90
2006,09,11,15,58,19.90
2006,09,11,15,59,19.90
2006,09,11,16,00,19.90
2006,09,11,16,01,19.90
2006,09,11,16,02,20.00
2006,09,11,16,03,20.00
2006,09,11,16,04,20.10
2006,09,11,16,05,20.20
2006,09,11,16,06,20.30
2006,09,11,16,07,20.40
2006,09,11,16,08,20.40
2006,09,11,16,09,20.50
2006,09,11,16,10,20.50
2006,09,11,16,11,20.60
2006,09,11,16,12,20.60
2006,09,11,16,13,20.60
2006,09,11,16,14,20.70
2006,09,11,16,15,20.70
2006,09,11,16,16,20.80
2006,09,11,16,17,20.80
2006,09,11,16,18,20.80
2006,09,11,16,19,20.80
2006,09,11,16,20,20.90
2006,09,11,16,21,20.90
2006,09,11,16,22,20.90
2006,09,11,16,23,21.00
2006,09,11,16,24,21.00
2006,09,11,16,25,21.10
2006,09,11,16,26,21.00
2006,09,11,16,27,20.90
2006,09,11,16,28,20.80
2006,09,11,16,29,20.80
2006,09,11,16,30,20.80
2006,09,11,16,31,20.80
2006,09,11,16,32,20.80
2006,09,11,16,33,20.80
2006,09,11,16,34,20.80
2006,09,11,16,35,20.70
2006,09,11,16,36,20.70
2006,09,11,16,37,20.70
2006,09,11,16,38,20.70
2006,09,11,16,39,20.70
2006,09,11,16,40,20.80
2006,09,11,16,41,20.80
2006,09,11,16,42,20.90
2006,09,11,16,43,21.10
2006,09,11,16,44,21.20
2006,09,11,16,45,21.30
2006,09,11,16,46,21.30
2006,09,11,16,47,21.40
2006,09,11,16,48,21.40
2006,09,11,16,49,21.40
2006,09,11,16,50,21.40
2006,09,11,16,51,21.20
2006,09,11,16,52,21.10
2006,09,11,16,53,21.00
2006,09,11,16,54,20.80
2006,09,11,16,55,20.80
2006,09,11,16,56,20.70
2006,09,11,16,57,20.60
2006,09,11,16,58,20.60
2006,09,11,16,59,20.50
2006,09,11,17,00,20.50
2006,09,11,17,01,20.50
2006,09,11,17,02,20.50
2006,09,11,17,03,20.50
2006,09,11,17,04,20.50
2006,09,11,17,05,20.50
2006,09,11,17,06,20.50
2006,09,11,17,07,20.60
2006,09,11,17,08,20.70
2006,09,11,17,09,20.70
2006,09,11,17,10,20.80
2006,09,11,17,11,20.70
2006,09,11,17,12,20.70
2006,09,11,17,13,20.50
2006,09,11,17,14,20.50
2006,09,11,17,15,20.40
2006,09,11,17,16,20.40
2006,09,11,17,17,20.50
2006,09,11,17,18,20.40
2006,09,11,17,19,20.40